N529TG KIAH-KTKI

Flight info

Callsign N529TG
Flight time 0h 51m
Altitude 28000
Route WYLSN8 GIFFA JROAM LOADS4
Aircraft HDJT/L-SDFGIRWY/LB1

Departure

Time 2026-05-05 20:50
Airport George Bush Intercontinental Airport (KIAH)

Arrival

Time 2026-05-05 21:42
Airport McKinney National Airport (KTKI)
Time Latitude Longitude Altitude Speed Heading
2026-05-05 20:14 29.96763 -95.35167 102 ft 0 kts 108°
2026-05-05 20:38 29.96760 -95.35165 102 ft 2 kts 181°
2026-05-05 20:38 29.96772 -95.35192 102 ft 8 kts 330°
2026-05-05 20:39 29.96824 -95.35201 101 ft 8 kts 39°
2026-05-05 20:39 29.96849 -95.35150 101 ft 8 kts 61°
2026-05-05 20:39 29.96889 -95.35130 101 ft 7 kts 333°
2026-05-05 20:39 29.96935 -95.35158 101 ft 8 kts 332°
2026-05-05 20:40 29.96984 -95.35189 101 ft 8 kts 332°
2026-05-05 20:40 29.97033 -95.35219 101 ft 8 kts 332°
2026-05-05 20:40 29.97084 -95.35250 101 ft 9 kts 332°
2026-05-05 20:40 29.97138 -95.35282 101 ft 9 kts 332°
2026-05-05 20:41 29.97207 -95.35325 100 ft 13 kts 330°
2026-05-05 20:41 29.97283 -95.35372 101 ft 12 kts 332°
2026-05-05 20:41 29.97357 -95.35416 101 ft 12 kts 332°
2026-05-05 20:41 29.97429 -95.35460 101 ft 12 kts 332°
2026-05-05 20:42 29.97502 -95.35506 101 ft 12 kts 332°
2026-05-05 20:42 29.97575 -95.35551 101 ft 12 kts 332°
2026-05-05 20:42 29.97647 -95.35593 102 ft 11 kts 332°
2026-05-05 20:42 29.97728 -95.35643 101 ft 15 kts 332°
2026-05-05 20:43 29.97823 -95.35701 101 ft 16 kts 332°
2026-05-05 20:43 29.97917 -95.35760 101 ft 15 kts 332°
2026-05-05 20:43 29.98012 -95.35818 100 ft 16 kts 332°
2026-05-05 20:43 29.98108 -95.35876 100 ft 15 kts 332°
2026-05-05 20:44 29.98201 -95.35933 101 ft 15 kts 332°
2026-05-05 20:44 29.98285 -95.36000 101 ft 15 kts 305°
2026-05-05 20:44 29.98352 -95.36083 101 ft 14 kts 330°
2026-05-05 20:44 29.98439 -95.36136 102 ft 14 kts 332°
2026-05-05 20:45 29.98626 -95.36252 102 ft 16 kts 333°
2026-05-05 20:45 29.98711 -95.36263 102 ft 10 kts 49°
2026-05-05 20:45 29.98724 -95.36236 102 ft 0 kts 62°
2026-05-05 20:48 29.98729 -95.36227 102 ft 5 kts 62°
2026-05-05 20:49 29.98749 -95.36184 103 ft 7 kts 63°
2026-05-05 20:49 29.98750 -95.36127 103 ft 8 kts 131°
2026-05-05 20:49 29.98703 -95.36093 103 ft 14 kts 152°
2026-05-05 20:49 29.98369 -95.35888 102 ft 92 kts 152°
2026-05-05 20:50 29.97669 -95.35458 240 ft 127 kts 156°
2026-05-05 20:50 29.96826 -95.34930 523 ft 146 kts 157°
2026-05-05 20:50 29.95921 -95.34553 1316 ft 128 kts 184°
2026-05-05 20:50 29.95155 -95.35001 1930 ft 136 kts 235°
2026-05-05 20:51 29.95144 -95.36138 2422 ft 161 kts 288°
2026-05-05 20:51 29.95873 -95.37132 3177 ft 158 kts 321°
2026-05-05 20:51 29.96950 -95.37501 3677 ft 180 kts
2026-05-05 20:51 29.98301 -95.37351 3836 ft 211 kts
2026-05-05 20:52 29.99862 -95.37307 3991 ft 236 kts 358°
2026-05-05 20:52 30.01483 -95.37281 3993 ft 235 kts 359°
2026-05-05 20:52 30.03137 -95.37256 3995 ft 239 kts 358°
2026-05-05 20:52 30.04797 -95.37235 3989 ft 239 kts 359°
2026-05-05 20:53 30.06463 -95.37218 3991 ft 238 kts 358°
2026-05-05 20:53 30.08121 -95.37207 4063 ft 241 kts 358°
2026-05-05 20:53 30.09780 -95.37202 4918 ft 235 kts 358°
2026-05-05 20:53 30.11418 -95.37198 5724 ft 235 kts 356°
2026-05-05 20:54 30.13062 -95.37198 6487 ft 237 kts 355°
2026-05-05 20:54 30.14716 -95.37213 7213 ft 238 kts 356°
2026-05-05 20:54 30.16380 -95.37208 7953 ft 241 kts 358°
2026-05-05 20:54 30.18052 -95.36929 8702 ft 246 kts
2026-05-05 20:55 30.19726 -95.36482 9564 ft 245 kts
2026-05-05 20:55 30.21413 -95.36126 10296 ft 249 kts
2026-05-05 20:55 30.23126 -95.35834 11062 ft 249 kts
2026-05-05 20:55 30.24853 -95.35520 11826 ft 252 kts
2026-05-05 20:56 30.26593 -95.35184 12597 ft 255 kts
2026-05-05 20:56 30.28351 -95.34849 13364 ft 258 kts
2026-05-05 20:56 30.30131 -95.34514 14084 ft 261 kts
2026-05-05 20:56 30.31905 -95.34179 14767 ft 263 kts
2026-05-05 20:57 30.33721 -95.33834 15464 ft 266 kts
2026-05-05 20:57 30.35569 -95.33485 15985 ft 275 kts
2026-05-05 20:57 30.37556 -95.33121 16000 ft 301 kts
2026-05-05 20:57 30.39668 -95.32717 16003 ft 314 kts
2026-05-05 20:58 30.41880 -95.32291 16138 ft 332 kts
2026-05-05 20:58 30.44182 -95.31850 16691 ft 336 kts
2026-05-05 20:58 30.46501 -95.31405 17309 ft 339 kts
2026-05-05 20:58 30.48839 -95.31084 17883 ft 337 kts 355°
2026-05-05 20:59 30.51191 -95.30958 18440 ft 340 kts 355°
2026-05-05 20:59 30.53558 -95.30797 18980 ft 342 kts 355°
2026-05-05 20:59 30.55942 -95.30626 19510 ft 344 kts 354°
2026-05-05 20:59 30.58333 -95.30469 20057 ft 345 kts 354°
2026-05-05 21:00 30.60732 -95.30317 20601 ft 347 kts 353°
2026-05-05 21:00 30.63156 -95.30157 21136 ft 349 kts 353°
2026-05-05 21:00 30.65587 -95.29994 21669 ft 351 kts 353°
2026-05-05 21:00 30.68035 -95.29833 22223 ft 353 kts 352°
2026-05-05 21:01 30.70494 -95.29672 22772 ft 355 kts 352°
2026-05-05 21:01 30.72970 -95.29509 23311 ft 358 kts 352°
2026-05-05 21:01 30.75461 -95.29343 23772 ft 360 kts 352°
2026-05-05 21:01 30.77968 -95.29182 24204 ft 362 kts 352°
2026-05-05 21:02 30.80494 -95.29020 24621 ft 365 kts 352°
2026-05-05 21:02 30.83039 -95.28846 25039 ft 368 kts 352°
2026-05-05 21:02 30.85602 -95.28672 25463 ft 370 kts 351°
2026-05-05 21:02 30.88185 -95.28502 25856 ft 373 kts 351°
2026-05-05 21:03 30.90782 -95.28331 26240 ft 375 kts 351°
2026-05-05 21:03 30.93401 -95.28156 26613 ft 378 kts 351°
2026-05-05 21:03 30.96030 -95.27980 26985 ft 380 kts 351°
2026-05-05 21:03 30.98678 -95.27804 27341 ft 382 kts 351°
2026-05-05 21:04 31.01307 -95.27630 27664 ft 385 kts 351°
2026-05-05 21:04 31.03991 -95.27453 27817 ft 388 kts 351°
2026-05-05 21:04 31.06683 -95.27271 27815 ft 387 kts 351°
2026-05-05 21:04 31.09371 -95.27089 27815 ft 388 kts 351°
2026-05-05 21:05 31.12103 -95.26917 27814 ft 398 kts 351°
2026-05-05 21:05 31.14892 -95.26736 27826 ft 405 kts 351°
2026-05-05 21:05 31.17725 -95.26539 27825 ft 410 kts 352°
2026-05-05 21:05 31.20575 -95.26341 27824 ft 410 kts 352°
2026-05-05 21:06 31.23418 -95.26151 27825 ft 409 kts 351°
2026-05-05 21:06 31.26264 -95.25966 27822 ft 409 kts 351°
2026-05-05 21:06 31.29107 -95.25776 27824 ft 410 kts 351°
2026-05-05 21:06 31.31952 -95.25583 27822 ft 410 kts 351°
2026-05-05 21:07 31.34797 -95.25393 27822 ft 410 kts 351°
2026-05-05 21:07 31.37642 -95.25204 27824 ft 410 kts 351°
2026-05-05 21:07 31.40489 -95.25013 27824 ft 410 kts 352°
2026-05-05 21:07 31.43339 -95.24818 27819 ft 411 kts 351°
2026-05-05 21:08 31.46190 -95.24624 27817 ft 411 kts 351°
2026-05-05 21:08 31.49043 -95.24431 27818 ft 410 kts 351°
2026-05-05 21:08 31.51892 -95.24238 27818 ft 410 kts 351°
2026-05-05 21:08 31.54713 -95.24225 27820 ft 400 kts 344°
2026-05-05 21:09 31.57437 -95.24622 27822 ft 390 kts 337°
2026-05-05 21:09 31.60037 -95.25383 27822 ft 380 kts 331°
2026-05-05 21:09 31.62482 -95.26470 27821 ft 372 kts 324°
2026-05-05 21:09 31.64751 -95.27848 27807 ft 364 kts 319°
2026-05-05 21:10 31.66831 -95.29485 27804 ft 357 kts 313°
2026-05-05 21:10 31.68709 -95.31347 27801 ft 350 kts 307°
2026-05-05 21:10 31.70426 -95.33353 27802 ft 348 kts 306°
2026-05-05 21:10 31.72147 -95.35358 27801 ft 349 kts 306°
2026-05-05 21:11 31.73875 -95.37360 27801 ft 349 kts 306°
2026-05-05 21:11 31.75609 -95.39387 27801 ft 354 kts 306°
2026-05-05 21:11 31.77351 -95.41425 27798 ft 350 kts 306°
2026-05-05 21:11 31.79074 -95.43432 27802 ft 349 kts 306°
2026-05-05 21:12 31.80794 -95.45446 27799 ft 349 kts 306°
2026-05-05 21:12 31.82514 -95.47461 27800 ft 349 kts 306°
2026-05-05 21:12 31.84235 -95.49474 27800 ft 349 kts 306°
2026-05-05 21:12 31.85956 -95.51489 27795 ft 349 kts 306°
2026-05-05 21:13 31.87675 -95.53504 27799 ft 349 kts 306°
2026-05-05 21:13 31.89396 -95.55522 27800 ft 349 kts 306°
2026-05-05 21:13 31.91115 -95.57539 27800 ft 349 kts 306°
2026-05-05 21:13 31.92833 -95.59555 27795 ft 349 kts 306°
2026-05-05 21:14 31.94551 -95.61573 27802 ft 349 kts 306°
2026-05-05 21:14 31.96268 -95.63590 27796 ft 348 kts 306°
2026-05-05 21:14 31.97980 -95.65603 27796 ft 348 kts 306°
2026-05-05 21:14 31.99694 -95.67620 27795 ft 348 kts 306°
2026-05-05 21:15 32.01406 -95.69637 27792 ft 348 kts 306°
2026-05-05 21:15 32.03120 -95.71656 27798 ft 348 kts 306°
2026-05-05 21:15 32.04833 -95.73674 27795 ft 349 kts 306°
2026-05-05 21:15 32.06551 -95.75697 27788 ft 349 kts 306°
2026-05-05 21:16 32.08286 -95.77700 27784 ft 350 kts 307°
2026-05-05 21:16 32.10040 -95.79689 27784 ft 350 kts 306°
2026-05-05 21:16 32.11786 -95.81689 27782 ft 350 kts 306°
2026-05-05 21:16 32.13520 -95.83695 27782 ft 349 kts 306°
2026-05-05 21:17 32.15260 -95.85701 27781 ft 350 kts 306°
2026-05-05 21:17 32.17002 -95.87703 27779 ft 349 kts 306°
2026-05-05 21:17 32.18740 -95.89705 27780 ft 349 kts 306°
2026-05-05 21:17 32.20480 -95.91712 27779 ft 349 kts 306°
2026-05-05 21:18 32.22217 -95.93716 27781 ft 348 kts 306°
2026-05-05 21:18 32.23948 -95.95714 27779 ft 348 kts 306°
2026-05-05 21:18 32.25680 -95.97716 27779 ft 348 kts 306°
2026-05-05 21:18 32.27412 -95.99718 27777 ft 348 kts 306°
2026-05-05 21:19 32.29144 -96.01720 27775 ft 348 kts 306°
2026-05-05 21:19 32.30876 -96.03724 27775 ft 348 kts 306°
2026-05-05 21:19 32.32608 -96.05728 27774 ft 349 kts 306°
2026-05-05 21:19 32.34342 -96.07737 27771 ft 348 kts 306°
2026-05-05 21:20 32.36072 -96.09743 27773 ft 349 kts 306°
2026-05-05 21:20 32.37805 -96.11752 27770 ft 349 kts 306°
2026-05-05 21:20 32.39538 -96.13762 27770 ft 349 kts 306°
2026-05-05 21:20 32.41273 -96.15776 27772 ft 349 kts 306°
2026-05-05 21:21 32.43006 -96.17789 27768 ft 349 kts 306°
2026-05-05 21:21 32.44738 -96.19803 27771 ft 349 kts 306°
2026-05-05 21:21 32.46472 -96.21819 27771 ft 349 kts 306°
2026-05-05 21:21 32.48201 -96.23829 27768 ft 348 kts 305°
2026-05-05 21:22 32.49923 -96.25833 27682 ft 344 kts 305°
2026-05-05 21:22 32.51627 -96.27817 26933 ft 345 kts 305°
2026-05-05 21:22 32.53323 -96.29797 26221 ft 340 kts 306°
2026-05-05 21:22 32.55003 -96.31754 25512 ft 337 kts 306°
2026-05-05 21:23 32.56720 -96.33642 24812 ft 339 kts 310°
2026-05-05 21:23 32.58576 -96.35358 24144 ft 337 kts 311°
2026-05-05 21:23 32.60387 -96.37041 23559 ft 326 kts 311°
2026-05-05 21:23 32.62156 -96.38713 22762 ft 324 kts 311°
2026-05-05 21:24 32.63921 -96.40371 21968 ft 323 kts 311°
2026-05-05 21:24 32.65690 -96.42018 21213 ft 323 kts 311°
2026-05-05 21:24 32.67451 -96.43661 20491 ft 322 kts 311°
2026-05-05 21:24 32.69204 -96.45304 19771 ft 321 kts 311°
2026-05-05 21:25 32.70961 -96.46951 19082 ft 321 kts 311°
2026-05-05 21:25 32.72722 -96.48602 18414 ft 323 kts 311°
2026-05-05 21:25 32.74482 -96.50249 17710 ft 322 kts 311°
2026-05-05 21:25 32.76238 -96.51892 16969 ft 320 kts 312°
2026-05-05 21:26 32.77935 -96.53470 16383 ft 295 kts 312°
2026-05-05 21:26 32.79564 -96.55005 15555 ft 302 kts 311°
2026-05-05 21:26 32.81199 -96.56559 14865 ft 300 kts 312°
2026-05-05 21:26 32.82835 -96.58091 14171 ft 299 kts 313°
2026-05-05 21:27 32.84461 -96.59611 13487 ft 296 kts 313°
2026-05-05 21:27 32.86044 -96.61101 12733 ft 293 kts 313°
2026-05-05 21:27 32.87658 -96.62623 11978 ft 291 kts 314°
2026-05-05 21:27 32.89238 -96.64110 11272 ft 289 kts 314°
2026-05-05 21:28 32.90810 -96.65590 10561 ft 287 kts 315°
2026-05-05 21:28 32.92369 -96.67058 10030 ft 283 kts 315°
2026-05-05 21:28 32.93915 -96.68516 10012 ft 286 kts 315°
2026-05-05 21:28 32.95473 -96.69988 10013 ft 285 kts 315°
2026-05-05 21:29 32.97030 -96.71455 10015 ft 285 kts 315°
2026-05-05 21:29 32.98586 -96.72924 10016 ft 285 kts 315°
2026-05-05 21:29 33.00135 -96.74387 10016 ft 285 kts 315°
2026-05-05 21:29 33.01690 -96.75855 10016 ft 285 kts 315°
2026-05-05 21:30 33.03250 -96.77315 10014 ft 287 kts 317°
2026-05-05 21:30 33.04416 -96.78088 10013 ft 295 kts 332°
2026-05-05 21:30 33.06325 -96.78980 9997 ft 294 kts 332°
2026-05-05 21:30 33.08361 -96.79472 10000 ft 307 kts 355°
2026-05-05 21:31 33.10483 -96.78975 10001 ft 315 kts 17°
2026-05-05 21:31 33.12446 -96.77902 10005 ft 308 kts 20°
2026-05-05 21:31 33.14380 -96.76797 10004 ft 308 kts 20°
2026-05-05 21:31 33.16322 -96.75712 10004 ft 309 kts 20°
2026-05-05 21:32 33.18909 -96.74280 10002 ft 309 kts 20°
2026-05-05 21:32 33.20224 -96.73545 9992 ft 309 kts 20°
2026-05-05 21:32 33.22175 -96.72453 9633 ft 310 kts 20°
2026-05-05 21:32 33.24107 -96.71372 8848 ft 305 kts 20°
2026-05-05 21:33 33.26031 -96.70298 8020 ft 302 kts 21°
2026-05-05 21:33 33.27954 -96.69225 7222 ft 306 kts 21°
2026-05-05 21:33 33.29849 -96.68162 6863 ft 295 kts 21°
2026-05-05 21:33 33.31650 -96.67149 6519 ft 270 kts 20°
2026-05-05 21:34 33.33308 -96.66219 6159 ft 263 kts 20°
2026-05-05 21:34 33.34917 -96.65324 5785 ft 237 kts 20°
2026-05-05 21:34 33.36338 -96.64522 5409 ft 220 kts 20°
2026-05-05 21:34 33.37655 -96.63784 4963 ft 203 kts 21°
2026-05-05 21:35 33.38885 -96.62991 4315 ft 201 kts 36°
2026-05-05 21:35 33.39652 -96.61583 3673 ft 206 kts 77°
2026-05-05 21:35 33.39591 -96.60020 3523 ft 174 kts 111°
2026-05-05 21:35 33.39024 -96.58883 3316 ft 147 kts 140°
2026-05-05 21:36 33.38248 -96.58240 3147 ft 130 kts 164°
2026-05-05 21:36 33.37377 -96.57994 2995 ft 126 kts 184°
2026-05-05 21:36 33.36536 -96.58044 2999 ft 121 kts 191°
2026-05-05 21:36 33.35665 -96.58089 2995 ft 128 kts 189°
2026-05-05 21:37 33.34784 -96.58058 2947 ft 128 kts 166°
2026-05-05 21:37 33.33866 -96.57925 2993 ft 137 kts 202°
2026-05-05 21:37 33.32945 -96.58215 3013 ft 137 kts 193°
2026-05-05 21:37 33.31975 -96.58270 3006 ft 140 kts 189°
2026-05-05 21:38 33.31005 -96.58311 2969 ft 140 kts 189°
2026-05-05 21:38 33.30020 -96.58378 2783 ft 142 kts 188°
2026-05-05 21:38 33.29031 -96.58403 2596 ft 143 kts 188°
2026-05-05 21:38 33.28039 -96.58432 2407 ft 144 kts 187°
2026-05-05 21:39 33.27024 -96.58470 2218 ft 146 kts 188°
2026-05-05 21:39 33.26049 -96.58511 2013 ft 133 kts 189°
2026-05-05 21:39 33.25179 -96.58544 1833 ft 118 kts 189°
2026-05-05 21:39 33.24387 -96.58579 1685 ft 112 kts 192°
2026-05-05 21:40 33.23592 -96.58618 1551 ft 115 kts 191°
2026-05-05 21:40 33.22804 -96.58647 1403 ft 109 kts 191°
2026-05-05 21:40 33.22026 -96.58684 1265 ft 114 kts 191°
2026-05-05 21:40 33.21275 -96.58720 1050 ft 106 kts 187°
2026-05-05 21:41 33.20510 -96.58741 934 ft 112 kts 189°
2026-05-05 21:41 33.19752 -96.58783 861 ft 104 kts 185°
2026-05-05 21:41 33.19051 -96.58814 648 ft 97 kts 188°
2026-05-05 21:41 33.18389 -96.58849 582 ft 87 kts 183°
2026-05-05 21:42 33.17911 -96.58868 578 ft 55 kts 182°
2026-05-05 21:42 33.17722 -96.58881 582 ft 12 kts 200°
2026-05-05 21:42 33.17697 -96.58944 581 ft 9 kts 270°
2026-05-05 21:42 33.17699 -96.59019 579 ft 4 kts 274°
2026-05-05 21:43 33.17699 -96.59078 579 ft 10 kts 270°
2026-05-05 21:43 33.17680 -96.59157 579 ft 9 kts 192°
2026-05-05 21:43 33.17618 -96.59160 580 ft 8 kts 197°
2026-05-05 21:43 33.17614 -96.59204 580 ft 2 kts 342°
2026-05-05 21:44 33.17624 -96.59204 580 ft 0 kts 359°